Location: Castiglione Fibocchi
(43.5333°N, 11.7667°E)
Time: 13:08:43
(UTC+00:00)

Cosmos 1745 Rocket - Pass Details

Date: 15 August 2020
Orbit: 952 x 999 km, 83.0° (Epoch: 24 September)

Event Time Altitude Azimuth Distance (km) Brightness Sun altitude
Rises 02:22:55 0° 352° (N) 3,698 7.5 -18.6°
Reaches altitude 10° 02:25:27 10° 353° (N) 2,739 6.8 -18.3°
Maximum altitude 02:31:45 86° 83° (E) 978 4.0 -17.4°
Drops below altitude 10° 02:37:55 10° 172° (S) 2,688 6.0 -16.6°
Sets 02:40:23 0° 173° (S) 3,625 6.7 -16.2°
Enters shadow 02:40:30 - 173° (S) 3,669 6.7 -16.2°
